Total_Precipitation_Accumulation
0.05 0.04 0.02 0.01 0.01 0.01 0.02 0.01 0.01 0.01 0.01 0.01 0.01 0.01 0.01 0.02 0.02 0.02 0.03 0.02 0.02 0.02 0.02 0.02 0.02 0.02 0.03 0.03 0.03 0.03 0.03 0.03 0.03 0.03 0.03 0.04 0.04 0.03 0.03 0.02 0.02 0.02 0.02 0.03 0.07 0.13 0.14 0.14 0.13 0.12 0.12 0.19 0.24 0.22 0.20 0.18 0.15 0.15 0.16 0.18 0.20 0.19 0.17 0.25 0.28 0.20 0.07 0.02 0.01 0.02 0.03 0.04 0.06 0.08 0.12 0.14 0.11 0.08 0.09 0.11 0.20 0.24 0.23 0.24 0.25
0.02 0.01 0.01 0.01 0.01 0.02 0.02 0.02 0.02 0.01 0.01 0.01 0.01 0.01 0.01 0.01 0.01 0.02 0.02 0.02 0.04 0.06 0.06 0.16 0.05 0.06 0.06 0.04 0.04 0.04 0.03 0.04 0.03 0.04 0.04 0.04 0.04 0.03 0.03 0.03 0.03 0.03 0.02 0.03 0.03 0.03 0.08 0.14 0.12 0.11 0.13 0.19 0.23 0.23 0.23 0.23 0.22 0.21 0.18 0.16 0.19 0.19 0.16 0.20 0.25 0.19 0.15 0.05 0.02 0.02 0.03 0.04 0.08 0.07 0.11 0.12 0.14 0.13 0.11 0.12 0.11 0.17 0.21 0.21 0.26
0.01 0.01 0.02 0.02 0.02 0.02 0.02 0.02 0.03 0.03 0.03 0.04 0.03 0.03 0.03 0.02 0.02 0.03 0.03 0.03 0.04 0.05 0.08 0.10 0.10 0.11 0.12 0.14 0.12 0.11 0.10 0.09 0.08 0.07 0.08 0.08 0.08 0.07 0.05 0.05 0.04 0.04 0.03 0.03 0.03 0.08 0.06 0.08 0.11 0.12 0.14 0.20 0.20 0.23 0.23 0.25 0.25 0.25 0.21 0.18 0.15 0.14 0.13 0.15 0.20 0.22 0.16 0.10 0.04 0.03 0.04 0.05 0.07 0.13 0.11 0.11 0.11 0.13 0.16 0.16 0.18 0.18 0.20 0.17 0.20
0.01 0.02 0.03 0.03 0.02 0.03 0.03 0.03 0.03 0.03 0.02 0.04 0.02 0.05 0.02 0.04 0.04 0.07 0.07 0.10 0.11 0.09 0.09 0.09 0.07 0.07 0.06 0.06 0.06 0.06 0.06 0.05 0.05 0.05 0.06 0.05 0.05 0.05 0.05 0.06 0.08 0.10 0.09 0.06 0.07 0.06 0.06 0.09 0.08 0.07 0.13 0.20 0.20 0.19 0.20 0.24 0.26 0.27 0.24 0.20 0.16 0.14 0.12 0.13 0.18 0.23 0.18 0.16 0.09 0.06 0.05 0.05 0.07 0.07 0.09 0.13 0.15 0.18 0.21 0.22 0.21 0.22 0.19 0.19 0.22
0.02 0.03 0.03 0.03 0.02 0.03 0.03 0.03 0.03 0.04 0.05 0.04 0.04 0.06 0.05 0.05 0.06 0.07 0.07 0.07 0.06 0.06 0.06 0.07 0.07 0.07 0.07 0.07 0.06 0.06 0.06 0.06 0.07 0.07 0.06 0.06 0.05 0.05 0.05 0.05 0.05 0.06 0.06 0.07 0.08 0.09 0.09 0.08 0.10 0.14 0.12 0.11 0.15 0.22 0.21 0.25 0.29 0.26 0.24 0.23 0.20 0.16 0.16 0.14 0.18 0.17 0.23 0.21 0.15 0.07 0.06 0.05 0.06 0.06 0.08 0.12 0.15 0.20 0.27 0.26 0.28 0.27 0.24 0.20 0.18
0.03 0.03 0.03 0.03 0.04 0.03 0.03 0.04 0.04 0.03 0.03 0.04 0.04 0.05 0.05 0.05 0.06 0.05 0.06 0.07 0.07 0.08 0.08 0.07 0.07 0.07 0.08 0.07 0.07 0.07 0.06 0.07 0.08 0.08 0.07 0.07 0.07 0.06 0.07 0.07 0.07 0.07 0.06 0.06 0.06 0.06 0.09 0.10 0.09 0.10 0.12 0.14 0.12 0.12 0.16 0.21 0.30 0.34 0.32 0.28 0.26 0.23 0.24 0.24 0.16 0.16 0.21 0.19 0.15 0.13 0.07 0.08 0.08 0.08 0.09 0.10 0.13 0.17 0.23 0.25 0.27 0.28 0.30 0.28 0.24
0.04 0.04 0.05 0.05 0.05 0.05 0.05 0.04 0.04 0.04 0.05 0.06 0.06 0.06 0.07 0.07 0.08 0.09 0.09 0.10 0.10 0.09 0.08 0.07 0.07 0.08 0.07 0.07 0.08 0.08 0.08 0.08 0.08 0.08 0.08 0.07 0.08 0.08 0.08 0.08 0.08 0.08 0.07 0.06 0.06 0.06 0.06 0.07 0.09 0.10 0.12 0.12 0.15 0.13 0.15 0.18 0.24 0.24 0.32 0.30 0.32 0.32 0.36 0.35 0.33 0.28 0.27 0.23 0.19 0.15 0.11 0.08 0.08 0.10 0.07 0.08 0.11 0.13 0.17 0.20 0.25 0.28 0.26 0.28 0.29
0.08 0.08 0.07 0.06 0.06 0.06 0.06 0.06 0.07 0.08 0.08 0.08 0.08 0.09 0.09 0.10 0.11 0.12 0.12 0.11 0.11 0.10 0.10 0.09 0.09 0.09 0.09 0.09 0.09 0.09 0.10 0.11 0.11 0.11 0.10 0.09 0.09 0.10 0.10 0.10 0.10 0.09 0.08 0.08 0.07 0.08 0.08 0.08 0.08 0.09 0.10 0.12 0.13 0.13 0.16 0.19 0.24 0.32 0.25 0.47 0.35 0.44 0.44 0.38 0.36 0.37 0.33 0.27 0.24 0.21 0.13 0.10 0.08 0.08 0.07 0.09 0.13 0.15 0.14 0.16 0.20 0.21 0.24 0.25 0.26
0.09 0.07 0.07 0.07 0.08 0.08 0.08 0.09 0.09 0.09 0.09 0.09 0.11 0.12 0.12 0.13 0.14 0.14 0.14 0.11 0.11 0.11 0.11 0.12 0.12 0.13 0.12 0.12 0.12 0.12 0.14 0.14 0.13 0.21 0.22 0.15 0.13 0.14 0.14 0.15 0.16 0.15 0.14 0.12 0.11 0.11 0.11 0.11 0.11 0.11 0.11 0.10 0.11 0.14 0.16 0.18 0.23 0.24 0.25 0.30 0.33 0.37 0.36 0.40 0.41 0.40 0.38 0.33 0.32 0.19 0.16 0.14 0.09 0.10 0.12 0.11 0.12 0.13 0.12 0.10 0.12 0.12 0.16 0.19 0.23
0.06 0.06 0.06 0.06 0.07 0.07 0.10 0.10 0.11 0.09 0.15 0.12 0.13 0.14 0.15 0.16 0.19 0.17 0.12 0.12 0.12 0.12 0.14 0.15 0.18 0.16 0.15 0.14 0.15 0.18 0.21 0.24 0.22 0.17 0.20 0.25 0.32 0.35 0.33 0.30 0.28 0.26 0.24 0.22 0.19 0.16 0.15 0.15 0.14 0.13 0.13 0.14 0.15 0.18 0.21 0.25 0.28 0.33 0.30 0.32 0.36 0.36 0.38 0.39 0.39 0.37 0.38 0.39 0.37 0.25 0.24 0.16 0.11 0.07 0.07 0.06 0.05 0.04 0.06 0.09 0.12 0.11 0.13 0.17 0.20
0.05 0.05 0.05 0.05 0.06 0.07 0.08 0.08 0.13 0.10 0.13 0.12 0.13 0.14 0.15 0.15 0.15 0.14 0.13 0.14 0.15 0.13 0.13 0.13 0.14 0.15 0.17 0.17 0.18 0.18 0.20 0.18 0.19 0.25 0.37 0.56 0.58 0.58 0.48 0.38 0.30 0.28 0.27 0.26 0.24 0.19 0.17 0.15 0.15 0.15 0.16 0.18 0.20 0.21 0.24 0.29 0.31 0.36 0.37 0.36 0.44 0.49 0.51 0.44 0.36 0.31 0.32 0.35 0.31 0.31 0.22 0.18 0.09 0.06 0.05 0.04 0.04 0.05 0.06 0.07 0.09 0.10 0.15 0.21 0.25
0.06 0.06 0.05 0.05 0.05 0.06 0.06 0.07 0.10 0.10 0.12 0.14 0.14 0.14 0.13 0.15 0.15 0.13 0.12 0.12 0.12 0.12 0.13 0.13 0.13 0.24 0.18 0.18 0.19 0.20 0.17 0.18 0.25 0.35 0.46 0.71 0.80 0.72 0.69 0.55 0.44 0.37 0.31 0.27 0.23 0.20 0.18 0.17 0.15 0.14 0.15 0.15 0.15 0.18 0.19 0.22 0.26 0.28 0.35 0.40 0.43 0.48 0.54 0.50 0.48 0.39 0.32 0.31 0.31 0.28 0.24 0.17 0.12 0.07 0.06 0.06 0.07 0.06 0.07 0.09 0.11 0.13 0.15 0.18 0.19
0.06 0.06 0.05 0.06 0.06 0.07 0.08 0.10 0.12 0.13 0.13 0.13 0.14 0.13 0.14 0.15 0.14 0.15 0.14 0.13 0.13 0.15 0.13 0.15 0.16 0.17 0.20 0.22 0.21 0.19 0.32 0.19 0.27 0.40 0.50 0.82 0.95 1.02 0.90 0.81 0.59 0.51 0.41 0.34 0.29 0.24 0.21 0.20 0.18 0.16 0.14 0.13 0.16 0.16 0.18 0.20 0.21 0.25 0.30 0.33 0.46 0.68 0.73 0.78 0.69 0.51 0.54 0.52 0.45 0.39 0.34 0.23 0.21 0.17 0.10 0.11 0.15 0.13 0.12 0.15 0.14 0.13 0.14 0.16 0.15
0.06 0.06 0.06 0.06 0.07 0.09 0.11 0.12 0.12 0.12 0.12 0.13 0.13 0.15 0.18 0.17 0.16 0.18 0.18 0.18 0.17 0.15 0.15 0.17 0.18 0.20 0.24 0.29 0.31 0.27 0.25 0.24 0.29 0.42 0.62 0.82 0.97 1.37 1.01 0.83 0.63 0.46 0.37 0.32 0.28 0.26 0.24 0.24 0.23 0.22 0.19 0.19 0.21 0.22 0.21 0.22 0.23 0.25 0.28 0.31 0.33 0.34 0.50 0.60 0.59 0.59 0.57 0.53 0.56 0.52 0.36 0.32 0.23 0.17 0.16 0.16 0.22 0.20 0.22 0.21 0.18 0.16 0.16 0.16 0.12
0.06 0.06 0.06 0.07 0.08 0.10 0.11 0.11 0.12 0.12 0.12 0.13 0.14 0.15 0.17 0.18 0.19 0.21 0.21 0.22 0.22 0.21 0.20 0.22 0.22 0.24 0.25 0.28 0.34 0.31 0.26 0.27 0.40 0.59 0.72 0.91 1.11 1.33 1.00 0.86 0.69 0.52 0.39 0.32 0.29 0.28 0.26 0.25 0.23 0.22 0.20 0.23 0.25 0.24 0.28 0.28 0.29 0.28 0.30 0.25 0.23 0.22 0.21 0.35 0.32 0.42 0.49 0.45 0.39 0.32 0.23 0.22 0.18 0.17 0.31 0.25 0.33 0.27 0.27 0.21 0.23 0.18 0.19 0.20 0.20
0.06 0.06 0.08 0.08 0.10 0.11 0.12 0.12 0.12 0.12 0.13 0.14 0.16 0.17 0.18 0.19 0.19 0.18 0.20 0.21 0.20 0.21 0.19 0.21 0.20 0.19 0.17 0.18 0.24 0.26 0.22 0.26 0.39 0.62 0.87 1.11 1.25 1.11 0.97 0.90 0.66 0.55 0.47 0.50 0.40 0.37 0.34 0.36 0.33 0.31 0.27 0.26 0.26 0.38 0.34 0.34 0.33 0.35 0.32 0.26 0.22 0.20 0.18 0.14 0.16 0.22 0.23 0.41 0.30 0.22 0.19 0.18 0.23 0.20 0.22 0.22 0.34 0.31 0.27 0.30 0.33 0.37 0.38 0.39 0.35
0.08 0.09 0.10 0.10 0.12 0.13 0.14 0.15 0.15 0.14 0.15 0.17 0.17 0.17 0.18 0.19 0.21 0.22 0.25 0.23 0.24 0.22 0.22 0.20 0.19 0.17 0.18 0.20 0.20 0.16 0.16 0.22 0.31 0.53 0.75 0.89 1.11 1.05 1.00 0.85 0.66 0.53 0.47 0.40 0.39 0.38 0.38 0.37 0.40 0.36 0.32 0.30 0.29 0.45 0.57 0.52 0.52 0.45 0.38 0.32 0.26 0.25 0.22 0.15 0.33 0.59 0.85 1.00 0.98 0.90 0.76 0.71 0.83 1.09 1.06 0.92 0.57 0.54 0.57 0.61 0.53 0.36 0.37 0.40 0.32
0.10 0.11 0.12 0.13 0.15 0.15 0.16 0.17 0.18 0.16 0.16 0.17 0.17 0.18 0.21 0.22 0.21 0.20 0.22 0.21 0.19 0.15 0.15 0.15 0.14 0.16 0.15 0.15 0.17 0.16 0.13 0.14 0.24 0.49 0.63 0.78 1.06 1.12 1.06 0.86 0.67 0.57 0.49 0.41 0.38 0.37 0.32 0.32 0.35 0.36 0.37 0.34 0.39 0.49 0.74 0.70 0.76 0.59 0.49 0.43 0.38 0.34 0.26 0.19 0.17 0.19 0.43 0.78 1.12 1.34 1.42 1.33 1.19 1.19 1.34 1.26 1.45 1.02 0.93 1.14 0.68 0.39 0.40 0.37 0.34
0.12 0.15 0.15 0.14 0.16 0.16 0.16 0.16 0.16 0.16 0.17 0.16 0.19 0.22 0.21 0.18 0.15 0.15 0.16 0.15 0.14 0.14 0.16 0.15 0.12 0.11 0.12 0.14 0.15 0.20 0.22 0.21 0.26 0.37 0.49 0.71 0.79 0.85 0.77 0.73 0.65 0.53 0.48 0.46 0.39 0.40 0.36 0.35 0.37 0.39 0.36 0.32 0.54 0.65 0.89 0.84 0.86 0.64 0.45 0.43 0.42 0.35 0.24 0.19 0.22 0.28 0.28 0.26 0.28 0.33 0.47 0.69 0.81 0.78 0.69 0.77 0.83 1.10 0.99 1.13 0.86 0.67 0.67 0.48 0.36
0.15 0.16 0.15 0.17 0.15 0.13 0.14 0.17 0.17 0.18 0.18 0.17 0.18 0.20 0.17 0.16 0.15 0.16 0.15 0.15 0.15 0.14 0.14 0.13 0.13 0.11 0.11 0.14 0.16 0.22 0.28 0.25 0.28 0.31 0.50 0.65 0.90 0.83 0.79 0.76 0.70 0.58 0.56 0.53 0.53 0.45 0.38 0.38 0.39 0.45 0.51 0.63 0.72 0.97 1.05 1.55 1.11 0.80 0.53 0.49 0.50 0.39 0.20 0.16 0.18 0.21 0.23 0.22 0.19 0.18 0.22 0.25 0.34 0.38 0.41 0.41 0.44 0.53 0.72 0.56 0.59 0.74 0.72 0.56 0.43
0.16 0.16 0.15 0.13 0.13 0.14 0.15 0.17 0.19 0.18 0.18 0.21 0.21 0.18 0.15 0.17 0.16 0.15 0.15 0.14 0.17 0.16 0.12 0.11 0.13 0.13 0.13 0.14 0.18 0.24 0.30 0.37 0.37 0.41 0.50 0.56 0.74 0.96 0.75 0.65 0.53 0.56 0.63 0.66 0.57 0.48 0.38 0.33 0.30 0.30 0.34 0.46 0.71 1.00 1.11 1.21 1.18 0.97 1.04 0.79 0.43 0.24 0.25 0.34 0.37 0.39 0.31 0.26 0.23 0.21 0.21 0.22 0.27 0.28 0.31 0.29 0.32 0.37 0.37 0.47 0.46 0.37 0.38 0.46 0.49
0.15 0.15 0.14 0.13 0.13 0.15 0.17 0.18 0.19 0.21 0.19 0.19 0.19 0.16 0.13 0.15 0.16 0.16 0.17 0.19 0.18 0.14 0.13 0.17 0.20 0.18 0.18 0.21 0.26 0.32 0.28 0.26 0.24 0.22 0.25 0.40 0.55 0.85 0.72 0.57 0.46 0.60 0.73 0.65 0.53 0.43 0.34 0.28 0.27 0.29 0.34 0.46 0.57 0.88 1.22 1.29 1.35 1.08 0.95 1.16 1.26 1.25 0.68 0.60 0.53 0.49 0.42 0.34 0.31 0.29 0.27 0.25 0.29 0.25 0.23 0.22 0.18 0.18 0.24 0.27 0.32 0.32 0.25 0.25 0.27
0.15 0.15 0.15 0.14 0.15 0.16 0.18 0.19 0.20 0.19 0.19 0.20 0.22 0.19 0.15 0.15 0.15 0.17 0.21 0.24 0.23 0.24 0.23 0.24 0.25 0.24 0.21 0.20 0.20 0.23 0.24 0.24 0.23 0.22 0.22 0.33 0.48 0.68 0.76 0.72 0.74 0.67 0.74 0.69 0.52 0.39 0.33 0.32 0.29 0.31 0.43 0.60 0.83 1.06 1.21 1.37 1.05 1.03 1.48 1.34 1.22 1.13 1.07 0.94 0.93 0.89 0.78 0.62 0.48 0.41 0.32 0.26 0.25 0.23 0.21 0.18 0.16 0.14 0.15 0.18 0.21 0.24 0.32 0.33 0.23
0.16 0.16 0.15 0.15 0.15 0.15 0.16 0.17 0.18 0.20 0.23 0.22 0.20 0.17 0.16 0.16 0.17 0.18 0.20 0.25 0.27 0.25 0.19 0.21 0.22 0.22 0.22 0.22 0.24 0.25 0.25 0.24 0.24 0.25 0.25 0.27 0.41 0.66 0.76 0.80 0.88 0.73 0.61 0.50 0.42 0.39 0.38 0.33 0.32 0.40 0.69 0.94 1.18 1.26 1.39 1.34 1.05 1.14 1.40 1.10 1.18 1.18 1.02 0.96 0.90 0.88 0.82 0.71 0.62 0.52 0.43 0.31 0.24 0.24 0.19 0.15 0.15 0.15 0.14 0.17 0.19 0.22 0.44 0.31 0.25
0.18 0.17 0.16 0.15 0.15 0.15 0.16 0.17 0.18 0.19 0.19 0.20 0.20 0.18 0.16 0.15 0.18 0.17 0.21 0.27 0.28 0.26 0.21 0.24 0.27 0.26 0.27 0.31 0.33 0.31 0.28 0.25 0.25 0.25 0.26 0.26 0.35 0.57 0.71 0.68 0.59 0.54 0.55 0.45 0.41 0.42 0.42 0.59 0.74 0.84 0.94 1.09 1.18 1.19 1.16 1.04 1.13 0.99 1.00 0.92 0.91 0.81 0.97 1.00 0.82 0.63 0.62 0.63 0.53 0.41 0.32 0.28 0.23 0.19 0.19 0.20 0.21 0.19 0.19 0.20 0.23 0.22 0.23 0.26 0.22
0.19 0.17 0.15 0.14 0.14 0.15 0.16 0.15 0.15 0.17 0.16 0.14 0.15 0.16 0.17 0.18 0.22 0.21 0.24 0.27 0.24 0.28 0.30 0.30 0.31 0.32 0.36 0.38 0.41 0.38 0.33 0.30 0.27 0.25 0.27 0.27 0.30 0.37 0.51 0.41 0.39 0.39 0.42 0.39 0.34 0.32 0.48 0.66 0.72 0.61 0.64 0.65 0.68 0.66 0.77 0.49 0.48 0.60 0.69 0.74 0.81 0.77 0.72 0.73 0.73 0.59 0.49 0.35 0.30 0.31 0.30 0.28 0.28 0.25 0.24 0.24 0.26 0.25 0.21 0.21 0.20 0.26 0.23 0.23 0.25
0.18 0.15 0.13 0.13 0.15 0.15 0.16 0.17 0.18 0.15 0.13 0.12 0.13 0.14 0.16 0.19 0.21 0.24 0.28 0.29 0.28 0.32 0.35 0.37 0.40 0.42 0.45 0.39 0.37 0.34 0.32 0.29 0.27 0.25 0.25 0.31 0.32 0.31 0.42 0.41 0.38 0.35 0.34 0.38 0.38 0.36 0.34 0.41 0.42 0.44 0.45 0.46 0.51 0.56 0.44 0.34 0.40 0.53 0.53 0.57 0.64 0.73 0.65 0.54 0.48 0.49 0.45 0.32 0.26 0.24 0.22 0.26 0.33 0.40 0.41 0.34 0.31 0.25 0.22 0.19 0.19 0.19 0.19 0.22 0.22
0.18 0.16 0.14 0.15 0.17 0.17 0.18 0.17 0.17 0.15 0.15 0.16 0.18 0.15 0.15 0.15 0.21 0.26 0.32 0.40 0.48 0.47 0.48 0.50 0.54 0.61 0.65 0.48 0.39 0.30 0.31 0.32 0.29 0.33 0.36 0.39 0.42 0.46 0.48 0.44 0.40 0.33 0.33 0.36 0.35 0.33 0.35 0.41 0.50 0.58 0.68 0.71 0.64 0.59 0.56 0.59 0.52 0.41 0.33 0.36 0.47 0.52 0.58 0.62 0.62 0.40 0.38 0.30 0.27 0.27 0.29 0.32 0.41 0.41 0.45 0.44 0.33 0.22 0.20 0.25 0.20 0.19 0.18 0.20 0.29
0.17 0.15 0.14 0.15 0.15 0.15 0.16 0.16 0.15 0.15 0.16 0.16 0.20 0.23 0.21 0.24 0.28 0.25 0.21 0.32 0.50 0.79 0.99 0.88 0.81 0.87 0.70 0.65 0.55 0.42 0.37 0.40 0.39 0.37 0.40 0.49 0.59 0.64 0.61 0.54 0.45 0.42 0.38 0.37 0.36 0.41 0.45 0.48 0.47 0.42 0.38 0.39 0.48 0.52 0.48 0.44 0.41 0.37 0.34 0.34 0.37 0.51 0.62 0.64 0.68 0.63 0.50 0.40 0.37 0.37 0.36 0.36 0.35 0.32 0.32 0.41 0.38 0.35 0.24 0.24 0.20 0.18 0.20 0.19 0.22
0.20 0.16 0.15 0.15 0.14 0.15 0.16 0.14 0.13 0.15 0.17 0.16 0.16 0.19 0.23 0.28 0.31 0.38 0.35 0.28 0.34 0.51 0.91 1.03 1.04 1.00 0.98 0.77 0.66 0.73 0.71 0.55 0.54 0.69 0.74 0.89 0.81 0.77 0.72 0.74 0.63 0.53 0.43 0.35 0.41 0.41 0.45 0.46 0.43 0.42 0.41 0.40 0.43 0.48 0.49 0.47 0.49 0.48 0.44 0.40 0.37 0.39 0.47 0.62 0.57 0.48 0.45 0.46 0.43 0.40 0.35 0.34 0.35 0.34 0.33 0.33 0.27 0.26 0.30 0.31 0.28 0.23 0.25 0.28 0.26
0.24 0.19 0.17 0.16 0.15 0.18 0.17 0.15 0.14 0.16 0.17 0.16 0.16 0.18 0.17 0.18 0.25 0.30 0.29 0.29 0.30 0.47 0.65 0.84 0.96 0.94 1.15 1.07 0.70 0.59 0.57 0.50 0.59 0.62 0.75 0.90 1.03 0.69 0.74 0.75 0.69 0.72 0.64 0.59 0.64 0.59 0.53 0.48 0.46 0.43 0.42 0.42 0.44 0.46 0.47 0.43 0.44 0.46 0.48 0.44 0.42 0.41 0.40 0.43 0.57 0.57 0.60 0.62 0.55 0.46 0.42 0.38 0.35 0.34 0.35 0.29 0.30 0.27 0.26 0.31 0.32 0.36 0.34 0.28 0.26
0.30 0.24 0.21 0.19 0.17 0.16 0.16 0.16 0.16 0.17 0.16 0.15 0.16 0.17 0.16 0.13 0.12 0.18 0.29 0.32 0.31 0.42 0.52 0.65 0.76 0.87 0.89 0.93 0.88 0.74 0.62 0.58 0.54 0.70 0.81 1.06 0.72 0.62 0.69 0.68 0.74 0.71 0.60 0.50 0.50 0.55 0.50 0.48 0.47 0.45 0.45 0.45 0.46 0.46 0.45 0.42 0.42 0.42 0.47 0.53 0.52 0.47 0.44 0.44 0.45 0.49 0.51 0.53 0.59 0.58 0.54 0.51 0.44 0.37 0.36 0.33 0.31 0.31 0.31 0.37 0.42 0.38 0.38 0.35 0.29
0.27 0.25 0.22 0.20 0.18 0.16 0.16 0.16 0.16 0.17 0.17 0.17 0.16 0.16 0.17 0.17 0.18 0.14 0.15 0.20 0.29 0.34 0.34 0.39 0.47 0.55 0.63 0.77 0.88 0.87 0.71 0.65 0.64 0.90 0.93 0.71 0.55 0.49 0.63 0.81 0.78 0.63 0.58 0.47 0.39 0.40 0.40 0.38 0.43 0.44 0.43 0.44 0.45 0.43 0.44 0.44 0.43 0.43 0.43 0.45 0.48 0.49 0.46 0.44 0.43 0.44 0.47 0.55 0.59 0.53 0.51 0.58 0.52 0.47 0.40 0.37 0.39 0.42 0.40 0.35 0.32 0.34 0.34 0.35 0.33
0.24 0.25 0.24 0.22 0.21 0.18 0.17 0.17 0.18 0.17 0.17 0.18 0.18 0.18 0.17 0.19 0.21 0.21 0.21 0.14 0.16 0.21 0.25 0.27 0.29 0.31 0.33 0.42 0.52 0.52 0.55 0.61 0.58 0.53 0.64 0.64 0.70 0.68 0.62 0.55 0.45 0.38 0.40 0.42 0.39 0.35 0.34 0.33 0.34 0.35 0.35 0.34 0.36 0.36 0.36 0.36 0.36 0.36 0.37 0.40 0.41 0.42 0.42 0.42 0.41 0.42 0.45 0.47 0.53 0.51 0.49 0.49 0.51 0.55 0.58 0.54 0.44 0.38 0.39 0.37 0.34 0.35 0.40 0.41 0.35
0.22 0.21 0.18 0.17 0.19 0.19 0.18 0.18 0.19 0.18 0.17 0.17 0.17 0.19 0.20 0.19 0.21 0.24 0.27 0.26 0.28 0.27 0.23 0.23 0.19 0.17 0.25 0.30 0.37 0.37 0.38 0.41 0.46 0.52 0.58 0.60 0.59 0.54 0.47 0.40 0.37 0.26 0.23 0.22 0.24 0.25 0.25 0.26 0.27 0.27 0.26 0.26 0.26 0.26 0.26 0.27 0.29 0.29 0.29 0.30 0.31 0.32 0.34 0.37 0.37 0.36 0.37 0.39 0.40 0.41 0.42 0.44 0.45 0.47 0.49 0.54 0.55 0.57 0.50 0.45 0.40 0.43 0.38 0.34 0.32
0.21 0.21 0.17 0.15 0.16 0.17 0.17 0.18 0.19 0.19 0.19 0.19 0.18 0.20 0.20 0.19 0.22 0.24 0.24 0.24 0.30 0.29 0.25 0.23 0.22 0.20 0.18 0.21 0.28 0.31 0.33 0.33 0.42 0.53 0.61 0.61 0.59 0.51 0.42 0.33 0.24 0.19 0.19 0.20 0.19 0.20 0.20 0.21 0.21 0.20 0.20 0.20 0.22 0.23 0.24 0.25 0.26 0.26 0.26 0.26 0.25 0.25 0.26 0.28 0.30 0.31 0.33 0.34 0.36 0.37 0.38 0.42 0.43 0.44 0.46 0.46 0.48 0.49 0.47 0.41 0.38 0.36 0.34 0.32 0.32
0.23 0.21 0.18 0.15 0.16 0.18 0.17 0.17 0.18 0.18 0.18 0.18 0.18 0.19 0.19 0.18 0.20 0.20 0.20 0.21 0.25 0.25 0.25 0.21 0.17 0.15 0.16 0.15 0.22 0.25 0.26 0.31 0.39 0.43 0.48 0.47 0.38 0.26 0.20 0.18 0.19 0.19 0.18 0.19 0.19 0.18 0.18 0.18 0.18 0.18 0.18 0.20 0.22 0.22 0.22 0.22 0.22 0.21 0.21 0.21 0.21 0.22 0.24 0.26 0.27 0.27 0.28 0.29 0.31 0.31 0.33 0.37 0.38 0.38 0.39 0.42 0.42 0.42 0.45 0.47 0.46 0.42 0.40 0.36 0.32
0.21 0.20 0.18 0.17 0.18 0.18 0.18 0.18 0.17 0.16 0.16 0.17 0.17 0.18 0.19 0.18 0.19 0.19 0.20 0.20 0.21 0.22 0.23 0.20 0.19 0.16 0.19 0.18 0.19 0.25 0.25 0.24 0.23 0.25 0.27 0.27 0.25 0.20 0.17 0.18 0.20 0.19 0.17 0.17 0.18 0.18 0.17 0.17 0.17 0.17 0.18 0.17 0.16 0.15 0.15 0.16 0.16 0.16 0.16 0.15 0.16 0.17 0.21 0.20 0.23 0.24 0.24 0.24 0.25 0.27 0.30 0.32 0.35 0.36 0.36 0.34 0.33 0.35 0.36 0.37 0.40 0.45 0.46 0.45 0.44
0.19 0.16 0.15 0.15 0.18 0.19 0.19 0.18 0.16 0.16 0.16 0.16 0.16 0.18 0.19 0.18 0.17 0.17 0.19 0.18 0.16 0.18 0.20 0.20 0.19 0.19 0.20 0.23 0.26 0.26 0.23 0.23 0.24 0.25 0.27 0.26 0.22 0.19 0.19 0.20 0.19 0.18 0.18 0.18 0.18 0.18 0.17 0.17 0.16 0.16 0.15 0.15 0.15 0.15 0.16 0.15 0.14 0.14 0.13 0.13 0.13 0.13 0.14 0.15 0.16 0.18 0.20 0.21 0.21 0.22 0.24 0.26 0.29 0.32 0.33 0.31 0.28 0.28 0.30 0.32 0.32 0.34 0.38 0.40 0.41
0.21 0.18 0.15 0.15 0.18 0.18 0.18 0.18 0.17 0.18 0.18 0.18 0.16 0.17 0.19 0.18 0.18 0.20 0.20 0.19 0.17 0.17 0.19 0.21 0.21 0.21 0.23 0.27 0.32 0.30 0.23 0.23 0.21 0.21 0.21 0.21 0.22 0.22 0.20 0.19 0.18 0.19 0.21 0.21 0.20 0.19 0.19 0.18 0.17 0.16 0.15 0.14 0.14 0.15 0.15 0.15 0.14 0.13 0.12 0.12 0.12 0.12 0.13 0.14 0.14 0.15 0.16 0.18 0.19 0.19 0.20 0.21 0.22 0.25 0.28 0.29 0.28 0.28 0.29 0.28 0.27 0.31 0.31 0.29 0.28
0.23 0.21 0.19 0.17 0.18 0.19 0.18 0.17 0.18 0.19 0.19 0.18 0.18 0.19 0.20 0.19 0.19 0.21 0.21 0.18 0.17 0.16 0.18 0.21 0.23 0.23 0.26 0.32 0.30 0.33 0.29 0.29 0.26 0.24 0.24 0.22 0.20 0.19 0.18 0.18 0.19 0.19 0.20 0.21 0.21 0.21 0.20 0.18 0.16 0.15 0.14 0.14 0.14 0.15 0.15 0.15 0.14 0.13 0.13 0.12 0.12 0.12 0.12 0.12 0.13 0.13 0.14 0.15 0.16 0.17 0.18 0.19 0.20 0.22 0.23 0.24 0.27 0.27 0.26 0.28 0.30 0.30 0.30 0.30 0.27
0.24 0.23 0.22 0.19 0.18 0.19 0.19 0.17 0.18 0.18 0.18 0.18 0.17 0.19 0.21 0.20 0.19 0.22 0.21 0.18 0.17 0.17 0.18 0.19 0.20 0.22 0.25 0.28 0.28 0.30 0.25 0.24 0.23 0.22 0.22 0.22 0.20 0.19 0.19 0.18 0.19 0.20 0.20 0.21 0.22 0.22 0.19 0.18 0.16 0.15 0.15 0.14 0.15 0.15 0.15 0.15 0.15 0.14 0.14 0.13 0.13 0.12 0.12 0.12 0.13 0.13 0.13 0.14 0.14 0.14 0.15 0.17 0.19 0.21 0.21 0.25 0.23 0.23 0.24 0.26 0.27 0.28 0.31 0.31 0.30
0.23 0.24 0.24 0.22 0.21 0.21 0.22 0.20 0.18 0.17 0.16 0.16 0.17 0.18 0.20 0.21 0.22 0.22 0.20 0.19 0.18 0.17 0.17 0.17 0.18 0.19 0.21 0.22 0.23 0.22 0.20 0.19 0.20 0.21 0.22 0.21 0.21 0.20 0.19 0.19 0.19 0.20 0.21 0.21 0.21 0.20 0.19 0.18 0.16 0.15 0.15 0.15 0.16 0.16 0.17 0.16 0.15 0.15 0.15 0.15 0.14 0.14 0.13 0.13 0.13 0.14 0.13 0.13 0.13 0.13 0.14 0.14 0.16 0.17 0.18 0.19 0.21 0.22 0.22 0.22 0.24 0.24 0.26 0.29 0.30
0.23 0.23 0.24 0.24 0.22 0.21 0.20 0.20 0.19 0.18 0.18 0.18 0.17 0.17 0.18 0.20 0.20 0.19 0.19 0.17 0.16 0.16 0.18 0.18 0.18 0.19 0.21 0.21 0.20 0.18 0.18 0.18 0.20 0.21 0.21 0.20 0.19 0.19 0.19 0.19 0.19 0.19 0.19 0.18 0.18 0.18 0.17 0.17 0.16 0.15 0.14 0.14 0.14 0.15 0.15 0.14 0.15 0.15 0.15 0.15 0.15 0.15 0.14 0.14 0.14 0.15 0.15 0.15 0.14 0.14 0.14 0.13 0.13 0.14 0.16 0.17 0.19 0.20 0.20 0.21 0.21 0.22 0.22 0.24 0.26
0.23 0.23 0.24 0.25 0.22 0.22 0.21 0.20 0.21 0.19 0.19 0.18 0.18 0.16 0.17 0.17 0.19 0.19 0.18 0.17 0.17 0.17 0.18 0.18 0.19 0.20 0.22 0.22 0.21 0.20 0.20 0.19 0.20 0.21 0.22 0.20 0.20 0.18 0.18 0.19 0.20 0.19 0.18 0.17 0.17 0.17 0.16 0.16 0.16 0.15 0.14 0.13 0.12 0.12 0.12 0.12 0.13 0.14 0.15 0.15 0.15 0.15 0.15 0.15 0.15 0.15 0.16 0.16 0.15 0.14 0.14 0.14 0.14 0.14 0.14 0.15 0.16 0.18 0.18 0.19 0.20 0.21 0.22 0.22 0.24
0.22 0.23 0.24 0.24 0.23 0.21 0.21 0.20 0.20 0.20 0.20 0.21 0.21 0.20 0.17 0.16 0.19 0.19 0.18 0.17 0.18 0.19 0.19 0.19 0.19 0.20 0.23 0.24 0.24 0.22 0.22 0.21 0.21 0.21 0.22 0.21 0.20 0.18 0.18 0.19 0.19 0.19 0.18 0.18 0.17 0.16 0.15 0.16 0.16 0.15 0.14 0.11 0.10 0.09 0.09 0.09 0.10 0.10 0.11 0.12 0.13 0.14 0.15 0.15 0.15 0.14 0.14 0.14 0.14 0.14 0.14 0.14 0.13 0.14 0.15 0.16 0.16 0.17 0.18 0.18 0.19 0.20 0.20 0.20 0.23
0.22 0.22 0.23 0.23 0.25 0.24 0.23 0.22 0.23 0.23 0.22 0.23 0.23 0.21 0.18 0.18 0.20 0.18 0.18 0.19 0.19 0.20 0.20 0.19 0.19 0.20 0.23 0.25 0.25 0.24 0.23 0.22 0.22 0.22 0.22 0.21 0.20 0.19 0.17 0.17 0.17 0.16 0.15 0.13 0.13 0.14 0.14 0.14 0.13 0.13 0.12 0.10 0.09 0.08 0.08 0.08 0.09 0.09 0.09 0.10 0.10 0.10 0.11 0.11 0.12 0.12 0.12 0.12 0.12 0.13 0.13 0.13 0.13 0.13 0.13 0.14 0.15 0.16 0.16 0.17 0.18 0.18 0.18 0.19 0.21
0.22 0.23 0.23 0.22 0.23 0.25 0.26 0.27 0.27 0.25 0.24 0.24 0.23 0.21 0.19 0.19 0.21 0.17 0.19 0.18 0.19 0.20 0.21 0.19 0.19 0.20 0.23 0.25 0.25 0.24 0.23 0.21 0.20 0.20 0.20 0.19 0.19 0.18 0.18 0.17 0.16 0.15 0.14 0.12 0.11 0.10 0.10 0.10 0.10 0.10 0.10 0.09 0.09 0.08 0.08 0.08 0.08 0.08 0.09 0.09 0.09 0.09 0.09 0.09 0.10 0.09 0.09 0.09 0.10 0.10 0.11 0.11 0.11 0.12 0.13 0.14 0.14 0.15 0.16 0.15 0.16 0.16 0.17 0.18 0.18
0.22 0.23 0.23 0.22 0.23 0.24 0.27 0.29 0.28 0.29 0.27 0.26 0.23 0.22 0.22 0.21 0.18 0.17 0.20 0.19 0.21 0.22 0.21 0.19 0.19 0.20 0.21 0.23 0.24 0.24 0.23 0.21 0.19 0.18 0.17 0.17 0.16 0.16 0.15 0.15 0.14 0.12 0.11 0.09 0.09 0.08 0.08 0.08 0.08 0.08 0.09 0.09 0.09 0.08 0.08 0.08 0.08 0.08 0.08 0.08 0.08 0.08 0.08 0.08 0.08 0.08 0.08 0.09 0.08 0.08 0.09 0.09 0.09 0.09 0.10 0.11 0.12 0.13 0.14 0.14 0.15 0.15 0.16 0.16 0.18
0.21 0.22 0.23 0.23 0.24 0.24 0.25 0.27 0.27 0.27 0.26 0.25 0.25 0.24 0.22 0.17 0.16 0.17 0.19 0.20 0.21 0.20 0.19 0.18 0.19 0.20 0.20 0.21 0.21 0.20 0.19 0.17 0.16 0.16 0.15 0.14 0.13 0.12 0.12 0.11 0.10 0.09 0.09 0.08 0.07 0.06 0.06 0.06 0.06 0.07 0.07 0.08 0.08 0.08 0.08 0.08 0.08 0.09 0.09 0.08 0.07 0.08 0.08 0.08 0.07 0.08 0.08 0.08 0.08 0.08 0.08 0.08 0.08 0.08 0.08 0.09 0.09 0.10 0.11 0.12 0.13 0.14 0.15 0.15 0.16
0.20 0.21 0.22 0.23 0.25 0.24 0.25 0.26 0.25 0.24 0.25 0.25 0.24 0.22 0.19 0.17 0.17 0.18 0.19 0.20 0.20 0.20 0.19 0.20 0.19 0.19 0.18 0.19 0.19 0.18 0.16 0.14 0.13 0.12 0.12 0.11 0.10 0.09 0.09 0.08 0.07 0.07 0.06 0.06 0.05 0.05 0.06 0.05 0.06 0.06 0.06 0.07 0.07 0.07 0.07 0.07 0.08 0.09 0.08 0.07 0.08 0.08 0.08 0.08 0.08 0.07 0.08 0.08 0.08 0.07 0.07 0.07 0.07 0.07 0.07 0.07 0.08 0.09 0.09 0.10 0.11 0.12 0.13 0.14 0.14